Time,TemperatureF,DewpointF,PressureIn,WindDirection,WindDirectionDegrees,WindSpeedMPH,WindSpeedGustMPH,Humidity,HourlyPrecipIn,Conditions,Clouds,dailyrainin,SoftwareType,DateUTC
2013-02-07 00:01:00,27.6,25.1,29.86,ESE,113,0.0,0.0,90,0.00,,,0.00,WUHU216HW,2013-02-07 06:01:00,
2013-02-07 00:06:00,27.6,25.1,29.86,ESE,113,0.0,0.0,90,0.00,,,0.00,WUHU216HW,2013-02-07 06:06:00,
2013-02-07 00:11:00,27.6,25.1,29.85,ESE,113,0.0,0.0,90,0.00,,,0.00,WUHU216HW,2013-02-07 06:11:00,
2013-02-07 00:16:00,27.8,25.3,29.85,ESE,113,0.0,0.0,90,0.00,,,0.00,WUHU216HW,2013-02-07 06:16:00,
2013-02-07 00:21:00,28.0,25.5,29.85,ESE,113,0.0,0.0,90,0.00,,,0.00,WUHU216HW,2013-02-07 06:21:00,
2013-02-07 00:26:00,28.2,25.7,29.85,ENE,68,0.0,0.0,90,0.00,,,0.00,WUHU216HW,2013-02-07 06:26:00,
2013-02-07 00:31:00,28.2,25.9,29.85,ENE,68,0.0,0.2,90,0.00,,,0.00,WUHU216HW,2013-02-07 06:31:00,
2013-02-07 00:36:00,28.2,25.9,29.85,East,90,0.0,0.2,91,0.00,,,0.00,WUHU216HW,2013-02-07 06:36:00,
2013-02-07 00:41:00,28.2,25.9,29.85,East,90,0.0,0.0,91,0.00,,,0.00,WUHU216HW,2013-02-07 06:41:00,
2013-02-07 00:46:00,28.2,25.9,29.85,East,90,0.0,0.0,91,0.00,,,0.00,WUHU216HW,2013-02-07 06:46:00,
2013-02-07 00:51:00,28.4,26.1,29.85,East,90,0.0,0.0,91,0.00,,,0.00,WUHU216HW,2013-02-07 06:51:00,
2013-02-07 00:57:00,28.5,26.3,29.85,SE,135,0.0,0.0,91,0.00,,,0.00,WUHU216HW,2013-02-07 06:57:00,
2013-02-07 01:02:00,28.5,26.3,29.85,SSE,158,0.0,1.5,91,0.00,,,0.00,WUHU216HW,2013-02-07 07:02:00,
2013-02-07 01:07:00,28.7,26.4,29.84,SSE,158,0.0,1.5,91,0.00,,,0.00,WUHU216HW,2013-02-07 07:07:00,
2013-02-07 01:12:00,29.1,26.8,29.84,SSE,158,0.0,0.0,91,0.00,,,0.00,WUHU216HW,2013-02-07 07:12:00,
2013-02-07 01:17:00,29.1,26.8,29.84,SSE,158,4.0,4.0,91,0.00,,,0.00,WUHU216HW,2013-02-07 07:17:00,
2013-02-07 01:22:00,29.3,27.0,29.83,SSE,158,0.0,4.0,91,0.00,,,0.00,WUHU216HW,2013-02-07 07:22:00,
2013-02-07 01:27:00,29.4,27.2,29.84,SE,135,0.0,0.6,91,0.00,,,0.00,WUHU216HW,2013-02-07 07:27:00,
2013-02-07 01:32:00,29.6,27.3,29.84,SE,135,0.0,0.0,91,0.00,,,0.00,WUHU216HW,2013-02-07 07:32:00,
2013-02-07 01:37:00,29.8,27.5,29.83,SSE,158,0.0,0.0,91,0.00,,,0.00,WUHU216HW,2013-02-07 07:37:00,
2013-02-07 01:42:00,29.8,27.5,29.83,SSE,158,4.9,4.9,91,0.00,,,0.00,WUHU216HW,2013-02-07 07:42:00,
2013-02-07 01:47:00,30.0,27.7,29.83,SSE,158,0.0,4.9,91,0.00,,,0.00,WUHU216HW,2013-02-07 07:47:00,
2013-02-07 01:52:00,30.0,27.7,29.83,SE,135,0.0,0.2,91,0.00,,,0.00,WUHU216HW,2013-02-07 07:52:00,
2013-02-07 01:57:00,30.0,27.7,29.84,SSE,158,3.3,3.3,91,0.00,,,0.00,WUHU216HW,2013-02-07 07:57:00,
2013-02-07 02:02:00,30.2,27.9,29.83,SSE,158,7.1,7.1,91,0.00,,,0.00,WUHU216HW,2013-02-07 08:02:00,
2013-02-07 02:07:00,30.3,28.1,29.83,SE,135,0.0,7.1,91,0.00,,,0.00,WUHU216HW,2013-02-07 08:07:00,
2013-02-07 02:12:00,30.5,28.2,29.83,SSE,155,3.8,6.7,91,0.00,,,0.00,WUHU216HW,2013-02-07 08:12:00,
2013-02-07 02:17:00,30.7,28.4,29.83,SE,135,0.0,6.7,91,0.00,,,0.00,WUHU216HW,2013-02-07 08:17:00,
2013-02-07 02:22:00,30.7,28.7,29.83,SE,135,0.0,4.2,92,0.00,,,0.00,WUHU216HW,2013-02-07 08:22:00,
2013-02-07 02:27:00,30.9,28.9,29.83,SSE,158,2.9,4.2,92,0.00,,,0.00,WUHU216HW,2013-02-07 08:27:00,
2013-02-07 02:32:00,31.2,29.2,29.82,SSE,158,6.8,7.3,92,0.00,,,0.00,WUHU216HW,2013-02-07 08:32:00,
2013-02-07 02:37:00,31.2,29.2,29.83,South,180,6.7,7.3,92,0.00,,,0.00,WUHU216HW,2013-02-07 08:37:00,
2013-02-07 02:42:00,31.4,29.2,29.82,SE,135,4.4,6.7,92,0.00,,,0.00,WUHU216HW,2013-02-07 08:42:00,
2013-02-07 02:47:00,31.6,29.6,29.82,SSE,158,7.8,8.7,92,0.00,,,0.00,WUHU216HW,2013-02-07 08:47:00,
2013-02-07 02:52:00,31.6,29.6,29.82,South,180,7.3,8.7,92,0.00,,,0.00,WUHU216HW,2013-02-07 08:52:00,
2013-02-07 02:58:00,31.6,29.6,29.82,South,172,2.8,7.3,92,0.00,,,0.00,WUHU216HW,2013-02-07 08:58:00,
2013-02-07 03:03:00,31.8,29.8,29.82,SE,135,5.3,6.4,92,0.00,,,0.00,WUHU216HW,2013-02-07 09:03:00,
2013-02-07 03:08:00,31.8,29.8,29.82,South,180,5.3,5.3,92,0.00,,,0.00,WUHU216HW,2013-02-07 09:08:00,
2013-02-07 03:13:00,31.8,29.8,29.81,South,180,8.5,8.5,92,0.00,,,0.00,WUHU216HW,2013-02-07 09:13:00,
2013-02-07 03:18:00,31.8,29.8,29.81,SSE,158,7.1,8.5,92,0.00,,,0.00,WUHU216HW,2013-02-07 09:18:00,
2013-02-07 03:23:00,32.0,29.9,29.80,South,180,8.2,8.2,92,0.00,,,0.00,WUHU216HW,2013-02-07 09:23:00,
2013-02-07 03:28:00,32.1,30.1,29.80,South,180,2.2,8.2,92,0.00,,,0.00,WUHU216HW,2013-02-07 09:28:00,
2013-02-07 03:33:00,32.1,30.1,29.81,SE,135,2.9,6.9,92,0.00,,,0.00,WUHU216HW,2013-02-07 09:33:00,
2013-02-07 03:38:00,32.1,30.1,29.81,South,180,7.3,7.3,92,0.00,,,0.00,WUHU216HW,2013-02-07 09:38:00,
2013-02-07 03:43:00,32.1,30.1,29.80,SSE,158,4.2,8.2,92,0.00,,,0.00,WUHU216HW,2013-02-07 09:43:00,
2013-02-07 03:48:00,32.1,30.1,29.80,SSE,158,2.9,8.2,92,0.00,,,0.00,WUHU216HW,2013-02-07 09:48:00,
2013-02-07 03:53:00,32.1,30.1,29.81,SSW,203,0.0,3.5,92,0.00,,,0.00,WUHU216HW,2013-02-07 09:53:00,
2013-02-07 03:58:00,32.1,30.1,29.81,SSW,203,0.0,3.5,92,0.00,,,0.00,WUHU216HW,2013-02-07 09:58:00,
2013-02-07 04:03:00,32.1,30.1,29.81,South,180,0.0,0.6,92,0.00,,,0.00,WUHU216HW,2013-02-07 10:03:00,
2013-02-07 04:08:00,32.1,30.1,29.81,South,180,5.8,10.2,92,0.00,,,0.00,WUHU216HW,2013-02-07 10:08:00,
2013-02-07 04:13:00,32.1,30.1,29.81,SSE,158,5.1,10.2,92,0.00,,,0.00,WUHU216HW,2013-02-07 10:13:00,
2013-02-07 04:18:00,32.1,30.1,29.81,South,180,1.1,6.0,92,0.00,,,0.00,WUHU216HW,2013-02-07 10:18:00,
2013-02-07 04:23:00,32.1,30.1,29.81,SSW,203,3.8,5.3,92,0.00,,,0.00,WUHU216HW,2013-02-07 10:23:00,
2013-02-07 04:28:00,32.1,30.1,29.81,South,180,6.4,6.4,92,0.00,,,0.00,WUHU216HW,2013-02-07 10:28:00,
2013-02-07 04:33:00,32.1,30.1,29.81,South,180,3.1,6.4,92,0.00,,,0.00,WUHU216HW,2013-02-07 10:33:00,
2013-02-07 04:39:00,32.1,30.1,29.80,SSE,158,10.5,10.5,92,0.00,,,0.00,WUHU216HW,2013-02-07 10:39:00,
2013-02-07 04:44:00,32.1,30.1,29.80,SE,135,1.7,10.5,92,0.00,,,0.00,WUHU216HW,2013-02-07 10:44:00,
2013-02-07 04:49:00,32.1,30.1,29.80,SSE,158,0.0,9.3,92,0.00,,,0.00,WUHU216HW,2013-02-07 10:49:00,
2013-02-07 04:54:00,32.1,30.1,29.80,SSE,158,0.0,8.7,92,0.00,,,0.00,WUHU216HW,2013-02-07 10:54:00,
2013-02-07 04:59:00,32.1,30.1,29.80,SSE,158,0.6,8.7,92,0.00,,,0.00,WUHU216HW,2013-02-07 10:59:00,
2013-02-07 05:04:00,32.1,30.1,29.80,SE,135,0.0,0.6,92,0.00,,,0.00,WUHU216HW,2013-02-07 11:04:00,
2013-02-07 05:09:00,32.1,30.1,29.80,SSE,158,0.0,0.0,92,0.00,,,0.00,WUHU216HW,2013-02-07 11:09:00,
2013-02-07 05:14:00,32.1,30.1,29.80,SSE,158,0.0,3.5,92,0.00,,,0.00,WUHU216HW,2013-02-07 11:14:00,
2013-02-07 05:19:00,32.1,30.1,29.80,South,180,0.4,0.8,92,0.00,,,0.00,WUHU216HW,2013-02-07 11:19:00,
2013-02-07 05:24:00,32.1,30.1,29.80,SSE,158,2.9,2.9,92,0.00,,,0.00,WUHU216HW,2013-02-07 11:24:00,
2013-02-07 05:29:00,32.1,30.1,29.80,South,180,0.0,2.9,92,0.00,,,0.00,WUHU216HW,2013-02-07 11:29:00,
2013-02-07 05:34:00,32.1,30.1,29.80,SSW,203,0.0,0.0,92,0.00,,,0.00,WUHU216HW,2013-02-07 11:34:00,
2013-02-07 05:39:00,32.1,30.1,29.80,South,180,2.6,2.6,92,0.00,,,0.00,WUHU216HW,2013-02-07 11:39:00,
2013-02-07 05:44:00,32.0,29.9,29.80,South,180,0.0,2.6,92,0.00,,,0.00,WUHU216HW,2013-02-07 11:44:00,
2013-02-07 05:49:00,32.0,29.9,29.80,SSE,158,0.0,0.0,92,0.00,,,0.00,WUHU216HW,2013-02-07 11:49:00,
2013-02-07 05:55:00,32.0,29.9,29.80,SSE,158,0.0,0.0,92,0.00,,,0.00,WUHU216HW,2013-02-07 11:55:00,
2013-02-07 06:00:00,32.0,30.2,29.80,South,180,0.0,1.1,92,0.00,,,0.00,WUHU216HW,2013-02-07 12:00:00,
2013-02-07 06:05:00,31.8,29.8,29.80,SSW,203,2.0,2.0,92,0.00,,,0.00,WUHU216HW,2013-02-07 12:05:00,
2013-02-07 06:10:00,31.8,29.8,29.80,South,180,0.0,2.0,92,0.00,,,0.00,WUHU216HW,2013-02-07 12:10:00,
2013-02-07 06:15:00,32.0,30.2,29.80,SSE,158,0.0,1.5,93,0.00,,,0.00,WUHU216HW,2013-02-07 12:15:00,
2013-02-07 06:20:00,32.0,30.2,29.79,SSE,158,0.0,0.0,93,0.00,,,0.00,WUHU216HW,2013-02-07 12:20:00,
2013-02-07 06:25:00,32.0,30.2,29.80,SE,135,0.0,0.0,93,0.00,,,0.00,WUHU216HW,2013-02-07 12:25:00,
2013-02-07 06:30:00,32.0,29.9,29.80,SE,135,0.0,0.0,93,0.00,,,0.00,WUHU216HW,2013-02-07 12:30:00,
2013-02-07 06:35:00,32.0,29.9,29.79,SE,135,0.0,0.0,92,0.00,,,0.00,WUHU216HW,2013-02-07 12:35:00,
2013-02-07 06:40:00,32.0,30.2,29.79,SE,135,0.0,0.0,93,0.00,,,0.00,WUHU216HW,2013-02-07 12:40:00,
2013-02-07 06:45:00,32.0,30.2,29.80,SSE,158,0.0,0.0,93,0.00,,,0.00,WUHU216HW,2013-02-07 12:45:00,
2013-02-07 06:50:00,31.8,29.8,29.80,SSE,158,0.0,0.0,92,0.00,,,0.00,WUHU216HW,2013-02-07 12:50:00,
2013-02-07 06:55:00,31.8,29.8,29.80,ESE,113,0.0,0.0,92,0.00,,,0.00,WUHU216HW,2013-02-07 12:55:00,
2013-02-07 07:00:00,32.0,29.9,29.80,ESE,113,0.0,0.0,92,0.00,,,0.00,WUHU216HW,2013-02-07 13:00:00,
2013-02-07 07:05:00,31.8,29.8,29.80,ESE,113,0.0,0.0,92,0.00,,,0.00,WUHU216HW,2013-02-07 13:05:00,
2013-02-07 07:10:00,31.8,29.8,29.80,ESE,113,0.0,0.0,92,0.00,,,0.00,WUHU216HW,2013-02-07 13:10:00,
2013-02-07 07:15:00,31.8,29.8,29.80,East,90,0.0,0.0,92,0.00,,,0.00,WUHU216HW,2013-02-07 13:15:00,
2013-02-07 07:21:00,31.8,30.0,29.80,ESE,113,0.0,2.4,93,0.00,,,0.00,WUHU216HW,2013-02-07 13:21:00,
2013-02-07 07:26:00,32.1,30.1,29.81,ESE,113,0.0,2.4,92,0.00,,,0.00,WUHU216HW,2013-02-07 13:26:00,
2013-02-07 07:31:00,32.0,29.9,29.80,ESE,113,0.0,0.0,92,0.00,,,0.00,WUHU216HW,2013-02-07 13:31:00,
2013-02-07 07:36:00,32.1,30.1,29.81,ESE,113,0.8,0.8,92,0.00,,,0.00,WUHU216HW,2013-02-07 13:36:00,
2013-02-07 07:41:00,32.1,30.1,29.81,ESE,113,0.0,3.1,92,0.00,,,0.00,WUHU216HW,2013-02-07 13:41:00,
2013-02-07 07:46:00,32.1,30.1,29.80,East,90,0.0,3.1,92,0.00,,,0.00,WUHU216HW,2013-02-07 13:46:00,
2013-02-07 07:51:00,32.1,30.1,29.81,SE,135,4.0,4.0,92,0.00,,,0.00,WUHU216HW,2013-02-07 13:51:00,
2013-02-07 07:56:00,32.1,30.1,29.81,East,90,0.8,4.0,92,0.00,,,0.00,WUHU216HW,2013-02-07 13:56:00,
2013-02-07 08:01:00,32.1,30.1,29.81,East,90,3.1,3.1,92,0.00,,,0.00,WUHU216HW,2013-02-07 14:01:00,
2013-02-07 08:06:00,32.3,30.3,29.81,ESE,113,0.0,3.1,92,0.00,,,0.00,WUHU216HW,2013-02-07 14:06:00,
2013-02-07 08:11:00,32.3,30.3,29.81,East,90,0.0,0.0,92,0.00,,,0.00,WUHU216HW,2013-02-07 14:11:00,
2013-02-07 08:16:00,32.3,30.3,29.81,East,90,0.0,0.0,92,0.00,,,0.00,WUHU216HW,2013-02-07 14:16:00,
2013-02-07 08:21:00,32.3,30.3,29.81,ENE,68,0.0,0.8,92,0.00,,,0.00,WUHU216HW,2013-02-07 14:21:00,
2013-02-07 08:26:00,32.5,30.4,29.81,East,90,0.0,0.8,92,0.00,,,0.00,WUHU216HW,2013-02-07 14:26:00,
2013-02-07 08:31:00,32.5,30.4,29.81,East,90,0.0,0.0,92,0.00,,,0.00,WUHU216HW,2013-02-07 14:31:00,
2013-02-07 08:36:00,32.5,30.7,29.81,East,90,0.6,2.2,93,0.00,,,0.00,WUHU216HW,2013-02-07 14:36:00,
2013-02-07 08:42:00,32.7,30.9,29.81,East,90,1.5,2.2,93,0.00,,,0.00,WUHU216HW,2013-02-07 14:42:00,
2013-02-07 08:47:00,32.7,30.9,29.81,East,90,0.0,1.5,93,0.00,,,0.00,WUHU216HW,2013-02-07 14:47:00,
2013-02-07 08:52:00,33.0,30.9,29.81,ENE,68,1.3,1.3,92,0.00,,,0.00,WUHU216HW,2013-02-07 14:52:00,
2013-02-07 08:57:00,33.2,30.9,29.81,ENE,68,0.0,1.3,92,0.00,,,0.00,WUHU216HW,2013-02-07 14:57:00,
2013-02-07 09:02:00,33.4,31.2,29.81,NE,45,0.0,0.0,92,0.00,,,0.00,WUHU216HW,2013-02-07 15:02:00,
2013-02-07 09:07:00,33.4,31.2,29.81,ENE,68,1.5,1.5,92,0.00,,,0.00,WUHU216HW,2013-02-07 15:07:00,
2013-02-07 09:12:00,33.6,31.4,29.81,NE,45,0.0,1.5,92,0.00,,,0.00,WUHU216HW,2013-02-07 15:12:00,
2013-02-07 09:17:00,33.4,31.2,29.80,NE,55,3.8,4.2,92,0.00,,,0.00,WUHU216HW,2013-02-07 15:17:00,
2013-02-07 09:22:00,33.4,31.2,29.80,NE,45,1.1,4.2,92,0.00,,,0.00,WUHU216HW,2013-02-07 15:22:00,
2013-02-07 09:27:00,33.4,31.2,29.80,NE,45,0.0,7.3,92,0.00,,,0.00,WUHU216HW,2013-02-07 15:27:00,
2013-02-07 09:32:00,33.4,31.2,29.80,NE,45,0.0,7.3,92,0.00,,,0.00,WUHU216HW,2013-02-07 15:32:00,
2013-02-07 09:37:00,33.4,31.2,29.80,NE,45,0.0,1.3,92,0.00,,,0.00,WUHU216HW,2013-02-07 15:37:00,
2013-02-07 09:42:00,33.4,31.2,29.80,NE,45,0.0,1.3,92,0.00,,,0.00,WUHU216HW,2013-02-07 15:42:00,
2013-02-07 09:47:00,33.2,31.1,29.81,ENE,68,0.0,1.1,92,0.00,,,0.00,WUHU216HW,2013-02-07 15:47:00,
2013-02-07 09:52:00,33.0,30.9,29.80,NE,45,2.9,5.3,92,0.00,,,0.00,WUHU216HW,2013-02-07 15:52:00,
2013-02-07 09:57:00,32.7,30.3,29.80,NE,45,0.0,5.3,91,0.00,,,0.00,WUHU216HW,2013-02-07 15:57:00,
2013-02-07 10:02:00,32.5,30.2,29.80,NE,45,0.0,6.0,91,0.00,,,0.00,WUHU216HW,2013-02-07 16:02:00,
2013-02-07 10:07:00,32.3,30.0,29.80,NE,45,0.0,6.0,91,0.00,,,0.00,WUHU216HW,2013-02-07 16:07:00,
2013-02-07 10:12:00,32.1,30.0,29.81,NE,45,0.0,3.8,91,0.00,,,0.00,WUHU216HW,2013-02-07 16:12:00,
2013-02-07 10:17:00,32.0,29.7,29.81,NE,45,3.1,3.1,91,0.00,,,0.00,WUHU216HW,2013-02-07 16:17:00,
2013-02-07 10:22:00,31.8,29.5,29.81,NNE,23,0.0,3.3,91,0.00,,,0.00,WUHU216HW,2013-02-07 16:22:00,
2013-02-07 10:27:00,32.0,29.7,29.82,NNE,23,0.0,3.3,91,0.00,,,0.00,WUHU216HW,2013-02-07 16:27:00,
2013-02-07 10:32:00,31.8,29.5,29.82,North,0,1.7,1.7,91,0.00,,,0.00,WUHU216HW,2013-02-07 16:32:00,
2013-02-07 10:37:00,31.8,29.5,29.81,NE,45,2.4,2.4,91,0.00,,,0.00,WUHU216HW,2013-02-07 16:37:00,
2013-02-07 10:42:00,31.6,29.3,29.82,NE,45,3.2,3.8,91,0.00,,,0.00,WUHU216HW,2013-02-07 16:42:00,
2013-02-07 10:47:00,31.6,29.1,29.81,ENE,68,7.3,7.3,90,0.00,,,0.00,WUHU216HW,2013-02-07 16:47:00,
2013-02-07 10:52:00,31.2,28.7,29.82,NE,45,0.0,7.3,90,0.00,,,0.00,WUHU216HW,2013-02-07 16:52:00,
2013-02-07 10:57:00,30.9,28.4,29.81,ENE,68,0.0,0.0,90,0.00,,,0.00,WUHU216HW,2013-02-07 16:57:00,
2013-02-07 11:02:00,30.9,28.4,29.81,ENE,68,0.0,0.0,90,0.00,,,0.00,WUHU216HW,2013-02-07 17:02:00,
2013-02-07 11:07:00,30.9,28.4,29.81,NE,45,2.0,2.6,90,0.00,,,0.00,WUHU216HW,2013-02-07 17:07:00,
2013-02-07 11:12:00,30.9,28.4,29.81,NE,45,0.0,7.6,90,0.00,,,0.00,WUHU216HW,2013-02-07 17:12:00,
2013-02-07 11:17:00,31.2,28.7,29.81,ENE,68,0.0,7.6,90,0.00,,,0.00,WUHU216HW,2013-02-07 17:17:00,
2013-02-07 11:22:00,31.2,28.7,29.81,NE,45,0.0,0.0,90,0.00,,,0.00,WUHU216HW,2013-02-07 17:22:00,
2013-02-07 11:27:00,30.9,28.4,29.80,NE,45,3.3,3.3,90,0.00,,,0.00,WUHU216HW,2013-02-07 17:27:00,
2013-02-07 11:32:00,30.9,28.4,29.80,NE,45,6.4,6.4,90,0.00,,,0.00,WUHU216HW,2013-02-07 17:32:00,
2013-02-07 11:37:00,30.9,28.4,29.80,NE,45,0.0,6.4,90,0.00,,,0.00,WUHU216HW,2013-02-07 17:37:00,
2013-02-07 11:43:00,31.1,28.2,29.80,NE,45,2.4,2.4,89,0.00,,,0.00,WUHU216HW,2013-02-07 17:43:00,
2013-02-07 11:48:00,30.9,28.1,29.80,NE,45,3.8,3.8,89,0.00,,,0.00,WUHU216HW,2013-02-07 17:48:00,
2013-02-07 11:53:00,30.7,27.9,29.80,NE,45,0.0,6.0,89,0.00,,,0.00,WUHU216HW,2013-02-07 17:53:00,
2013-02-07 11:58:00,30.9,28.1,29.79,NE,45,0.0,6.0,89,0.00,,,0.00,WUHU216HW,2013-02-07 17:58:00,
2013-02-07 12:03:00,30.9,28.1,29.79,NE,45,0.0,0.6,89,0.00,,,0.00,WUHU216HW,2013-02-07 18:03:00,
2013-02-07 12:08:00,30.9,27.8,29.78,NE,45,0.0,2.4,88,0.00,,,0.00,WUHU216HW,2013-02-07 18:08:00,
2013-02-07 12:13:00,31.1,28.0,29.78,NE,45,0.0,4.0,88,0.00,,,0.00,WUHU216HW,2013-02-07 18:13:00,
2013-02-07 12:18:00,31.2,28.1,29.78,NNE,23,0.0,4.0,88,0.00,,,0.00,WUHU216HW,2013-02-07 18:18:00,
2013-02-07 12:23:00,31.2,28.1,29.78,NNE,23,2.2,2.6,88,0.00,,,0.00,WUHU216HW,2013-02-07 18:23:00,
2013-02-07 12:28:00,31.2,28.1,29.78,NE,45,0.0,4.4,88,0.00,,,0.00,WUHU216HW,2013-02-07 18:28:00,
2013-02-07 12:33:00,31.2,28.1,29.78,NE,45,0.0,4.4,88,0.00,,,0.00,WUHU216HW,2013-02-07 18:33:00,
2013-02-07 12:38:00,31.6,28.5,29.77,NE,45,0.0,4.0,88,0.00,,,0.00,WUHU216HW,2013-02-07 18:38:00,
2013-02-07 12:43:00,31.6,28.2,29.77,NE,45,0.0,4.0,87,0.00,,,0.00,WUHU216HW,2013-02-07 18:43:00,
2013-02-07 12:48:00,31.6,28.2,29.77,NE,45,0.0,2.4,87,0.00,,,0.00,WUHU216HW,2013-02-07 18:48:00,
2013-02-07 12:53:00,31.2,27.8,29.77,NE,45,0.0,4.6,87,0.00,,,0.00,WUHU216HW,2013-02-07 18:53:00,
2013-02-07 12:58:00,31.2,27.6,29.77,North,0,4.2,4.6,86,0.00,,,0.00,WUHU216HW,2013-02-07 18:58:00,
2013-02-07 13:03:00,31.2,27.6,29.76,NE,45,0.0,4.2,86,0.00,,,0.00,WUHU216HW,2013-02-07 19:03:00,
2013-02-07 13:08:00,31.2,27.6,29.76,NE,45,5.3,5.3,86,0.00,,,0.00,WUHU216HW,2013-02-07 19:08:00,
2013-02-07 13:13:00,31.2,27.7,29.77,NE,45,1.5,5.3,86,0.00,,,0.00,WUHU216HW,2013-02-07 19:13:00,
2013-02-07 13:18:00,31.4,27.7,29.76,NE,45,4.0,4.0,86,0.00,,,0.00,WUHU216HW,2013-02-07 19:18:00,
2013-02-07 13:24:00,31.6,27.9,29.75,NE,45,1.3,4.0,86,0.00,,,0.00,WUHU216HW,2013-02-07 19:24:00,
2013-02-07 13:29:00,31.6,27.9,29.76,NE,45,0.0,2.6,86,0.00,,,0.00,WUHU216HW,2013-02-07 19:29:00,
2013-02-07 13:34:00,31.6,27.9,29.75,NNE,23,1.1,1.7,86,0.00,,,0.00,WUHU216HW,2013-02-07 19:34:00,
2013-02-07 13:39:00,31.8,28.1,29.75,NNE,23,0.0,4.2,86,0.00,,,0.00,WUHU216HW,2013-02-07 19:39:00,
2013-02-07 13:44:00,31.6,27.9,29.75,NNE,23,2.4,7.3,86,0.00,,,0.00,WUHU216HW,2013-02-07 19:44:00,
2013-02-07 13:49:00,31.6,27.6,29.75,NE,45,3.3,7.3,85,0.00,,,0.00,WUHU216HW,2013-02-07 19:49:00,
2013-02-07 13:54:00,31.6,27.9,29.75,NE,45,0.0,4.2,86,0.00,,,0.00,WUHU216HW,2013-02-07 19:54:00,
2013-02-07 13:59:00,31.2,27.3,29.75,NE,45,0.0,0.0,85,0.00,,,0.00,WUHU216HW,2013-02-07 19:59:00,
2013-02-07 14:04:00,31.2,27.6,29.75,NNE,23,7.3,7.3,86,0.00,,,0.00,WUHU216HW,2013-02-07 20:04:00,
2013-02-07 14:09:00,31.2,27.6,29.75,NE,45,6.9,7.3,86,0.00,,,0.00,WUHU216HW,2013-02-07 20:09:00,
2013-02-07 14:14:00,31.6,27.6,29.74,NE,45,6.9,6.9,86,0.00,,,0.00,WUHU216HW,2013-02-07 20:14:00,
2013-02-07 14:19:00,31.2,27.3,29.74,NE,45,0.0,6.9,85,0.00,,,0.00,WUHU216HW,2013-02-07 20:19:00,
2013-02-07 14:24:00,31.2,27.3,29.74,ENE,68,0.0,0.8,85,0.00,,,0.00,WUHU216HW,2013-02-07 20:24:00,
2013-02-07 14:29:00,31.1,27.1,29.75,NE,45,2.9,2.9,85,0.00,,,0.00,WUHU216HW,2013-02-07 20:29:00,
2013-02-07 14:34:00,31.2,27.3,29.74,NE,45,3.8,3.8,85,0.00,,,0.00,WUHU216HW,2013-02-07 20:34:00,
2013-02-07 14:39:00,31.1,27.1,29.75,NNE,23,3.3,3.8,85,0.00,,,0.00,WUHU216HW,2013-02-07 20:39:00,
2013-02-07 14:44:00,30.7,26.7,29.74,NNE,23,4.4,4.4,85,0.00,,,0.00,WUHU216HW,2013-02-07 20:44:00,
2013-02-07 14:49:00,30.7,26.7,29.74,NE,45,1.5,4.4,85,0.00,,,0.00,WUHU216HW,2013-02-07 20:49:00,
2013-02-07 14:54:00,30.5,26.6,29.74,NE,45,0.0,7.3,85,0.00,,,0.00,WUHU216HW,2013-02-07 20:54:00,
2013-02-07 14:59:00,30.2,25.9,29.74,NE,45,0.0,7.3,84,0.00,,,0.00,WUHU216HW,2013-02-07 20:59:00,
2013-02-07 15:04:00,30.3,26.4,29.74,NNW,338,5.1,5.1,85,0.00,,,0.00,WUHU216HW,2013-02-07 21:04:00,
2013-02-07 15:09:00,30.0,26.0,29.74,NNE,15,2.9,5.1,85,0.00,,,0.00,WUHU216HW,2013-02-07 21:09:00,
2013-02-07 15:15:00,29.8,25.8,29.74,NNW,338,0.0,3.8,85,0.00,,,0.00,WUHU216HW,2013-02-07 21:15:00,
2013-02-07 15:20:00,29.8,25.8,29.73,East,90,0.0,2.6,85,0.00,,,0.00,WUHU216HW,2013-02-07 21:20:00,
2013-02-07 15:25:00,29.6,25.7,29.74,NE,45,0.0,6.2,85,0.00,,,0.00,WUHU216HW,2013-02-07 21:25:00,
2013-02-07 15:30:00,29.3,25.3,29.74,NNE,23,6.2,6.4,85,0.00,,,0.00,WUHU216HW,2013-02-07 21:30:00,
2013-02-07 15:35:00,29.3,25.3,29.74,NNE,23,0.0,6.4,85,0.00,,,0.00,WUHU216HW,2013-02-07 21:35:00,
2013-02-07 15:40:00,29.1,25.1,29.74,NNE,23,0.0,5.1,85,0.00,,,0.00,WUHU216HW,2013-02-07 21:40:00,
2013-02-07 15:45:00,28.9,24.9,29.74,NNE,23,0.0,4.9,85,0.00,,,0.00,WUHU216HW,2013-02-07 21:45:00,
2013-02-07 15:50:00,28.5,24.9,29.74,North,0,6.9,6.9,86,0.00,,,0.00,WUHU216HW,2013-02-07 21:50:00,
2013-02-07 15:55:00,28.5,24.9,29.74,NNE,23,1.7,6.9,86,0.00,,,0.00,WUHU216HW,2013-02-07 21:55:00,
2013-02-07 16:00:00,28.2,24.5,29.74,North,10,5.8,6.2,86,0.00,,,0.00,WUHU216HW,2013-02-07 22:00:00,
2013-02-07 16:05:00,28.2,24.5,29.74,NNE,23,6.0,8.0,86,0.00,,,0.00,WUHU216HW,2013-02-07 22:05:00,
2013-02-07 16:10:00,28.0,24.6,29.73,NNE,23,4.9,8.0,87,0.00,,,0.00,WUHU216HW,2013-02-07 22:10:00,
2013-02-07 16:15:00,27.8,24.2,29.74,North,8,4.8,8.0,87,0.00,,,0.00,WUHU216HW,2013-02-07 22:15:00,
2013-02-07 16:20:00,27.6,24.2,29.74,NNE,23,9.6,9.6,87,0.00,,,0.00,WUHU216HW,2013-02-07 22:20:00,
2013-02-07 16:25:00,27.5,24.1,29.74,NNE,23,7.8,9.6,87,0.00,,,0.00,WUHU216HW,2013-02-07 22:25:00,
2013-02-07 16:30:00,27.5,24.4,29.74,NE,45,7.3,7.8,88,0.00,,,0.00,WUHU216HW,2013-02-07 22:30:00,
2013-02-07 16:35:00,27.3,24.2,29.74,NNE,23,1.7,7.3,88,0.00,,,0.00,WUHU216HW,2013-02-07 22:35:00,
2013-02-07 16:40:00,27.1,24.0,29.74,North,0,4.0,4.0,88,0.00,,,0.00,WUHU216HW,2013-02-07 22:40:00,
2013-02-07 16:45:00,27.1,24.0,29.74,North,0,4.4,7.6,88,0.00,,,0.00,WUHU216HW,2013-02-07 22:45:00,
2013-02-07 16:50:00,27.1,24.0,29.74,NE,45,4.4,7.6,88,0.00,,,0.00,WUHU216HW,2013-02-07 22:50:00,
2013-02-07 16:55:00,27.1,24.0,29.75,NNE,23,7.3,8.5,88,0.00,,,0.00,WUHU216HW,2013-02-07 22:55:00,
2013-02-07 17:00:00,27.1,24.0,29.75,NNE,23,1.1,8.5,88,0.00,,,0.00,WUHU216HW,2013-02-07 23:00:00,
2013-02-07 17:05:00,26.9,23.8,29.75,North,0,4.9,8.2,88,0.00,,,0.00,WUHU216HW,2013-02-07 23:05:00,
2013-02-07 17:10:00,27.1,24.1,29.75,NE,45,1.7,7.3,89,0.00,,,0.00,WUHU216HW,2013-02-07 23:10:00,
2013-02-07 17:15:00,26.7,23.9,29.75,North,11,3.4,6.0,89,0.00,,,0.00,WUHU216HW,2013-02-07 23:15:00,
2013-02-07 17:20:00,26.7,23.9,29.75,North,0,7.7,8.5,89,0.00,,,0.00,WUHU216HW,2013-02-07 23:20:00,
2013-02-07 17:25:00,26.7,23.9,29.75,North,0,3.3,8.5,89,0.00,,,0.00,WUHU216HW,2013-02-07 23:25:00,
2013-02-07 17:30:00,26.7,23.9,29.75,NNE,23,6.9,6.9,89,0.00,,,0.00,WUHU216HW,2013-02-07 23:30:00,
2013-02-07 17:35:00,26.7,24.2,29.75,North,11,4.8,7.1,90,0.00,,,0.00,WUHU216HW,2013-02-07 23:35:00,
2013-02-07 17:40:00,26.7,24.2,29.75,NNE,23,7.6,7.6,90,0.00,,,0.00,WUHU216HW,2013-02-07 23:40:00,
2013-02-07 17:45:00,26.7,24.2,29.75,NNE,23,3.5,7.6,90,0.00,,,0.00,WUHU216HW,2013-02-07 23:45:00,
2013-02-07 17:50:00,26.7,24.2,29.75,North,0,1.5,4.4,90,0.00,,,0.00,WUHU216HW,2013-02-07 23:50:00,
2013-02-07 17:55:00,26.7,24.2,29.76,NE,45,3.8,4.4,90,0.00,,,0.00,WUHU216HW,2013-02-07 23:55:00,
2013-02-07 18:01:00,26.7,24.2,29.76,NNE,28,4.1,6.0,90,0.00,,,0.00,WUHU216HW,2013-02-08 00:01:00,
2013-02-07 18:06:00,26.7,24.2,29.77,NNE,23,8.2,8.2,90,0.00,,,0.00,WUHU216HW,2013-02-08 00:06:00,
2013-02-07 18:11:00,26.7,24.2,29.76,North,0,5.8,9.1,90,0.00,,,0.00,WUHU216HW,2013-02-08 00:11:00,
2013-02-07 18:16:00,26.7,24.2,29.77,NNE,23,10.2,10.2,90,0.00,,,0.00,WUHU216HW,2013-02-08 00:16:00,
2013-02-07 18:21:00,26.7,24.2,29.77,North,0,11.6,11.6,90,0.00,,,0.00,WUHU216HW,2013-02-08 00:21:00,
2013-02-07 18:26:00,26.4,24.1,29.77,North,0,9.6,11.6,91,0.00,,,0.00,WUHU216HW,2013-02-08 00:26:00,
2013-02-07 18:31:00,26.2,23.7,29.77,ENE,77,11.6,13.1,90,0.00,,,0.00,WUHU216HW,2013-02-08 00:31:00,
2013-02-07 18:36:00,25.8,23.3,29.78,NE,53,6.6,13.1,90,0.00,,,0.00,WUHU216HW,2013-02-08 00:36:00,
2013-02-07 18:41:00,25.7,23.1,29.79,East,90,4.6,8.7,90,0.00,,,0.00,WUHU216HW,2013-02-08 00:41:00,
2013-02-07 18:46:00,25.5,23.0,29.79,NNE,23,0.0,8.0,90,0.00,,,0.00,WUHU216HW,2013-02-08 00:46:00,
2013-02-07 18:51:00,25.5,23.0,29.80,North,0,0.0,9.3,90,0.00,,,0.00,WUHU216HW,2013-02-08 00:51:00,
2013-02-07 18:56:00,25.3,22.8,29.80,NE,45,6.4,9.3,90,0.00,,,0.00,WUHU216HW,2013-02-08 00:56:00,
2013-02-07 19:01:00,25.1,22.6,29.80,ENE,68,5.1,6.4,90,0.00,,,0.00,WUHU216HW,2013-02-08 01:01:00,
2013-02-07 19:06:00,24.9,22.4,29.80,ENE,68,2.9,7.8,90,0.00,,,0.00,WUHU216HW,2013-02-08 01:06:00,
2013-02-07 19:11:00,24.6,22.1,29.81,North,0,5.5,7.8,90,0.00,,,0.00,WUHU216HW,2013-02-08 01:11:00,
2013-02-07 19:16:00,24.4,21.9,29.80,North,0,0.0,21.9,90,0.00,,,0.00,WUHU216HW,2013-02-08 01:16:00,
2013-02-07 19:21:00,24.0,21.5,29.80,NE,45,9.1,21.9,90,0.00,,,0.00,WUHU216HW,2013-02-08 01:21:00,
2013-02-07 19:26:00,23.7,21.2,29.81,ENE,68,6.7,9.1,90,0.00,,,0.00,WUHU216HW,2013-02-08 01:26:00,
2013-02-07 19:31:00,23.5,21.0,29.81,NNE,19,4.0,7.1,90,0.00,,,0.00,WUHU216HW,2013-02-08 01:31:00,
2013-02-07 19:36:00,23.5,21.0,29.82,NNE,23,0.8,6.9,90,0.00,,,0.00,WUHU216HW,2013-02-08 01:36:00,
2013-02-07 19:41:00,23.3,20.8,29.82,NNE,23,5.8,6.7,90,0.00,,,0.00,WUHU216HW,2013-02-08 01:41:00,
2013-02-07 19:46:00,23.1,20.6,29.82,NE,38,3.8,13.6,90,0.00,,,0.00,WUHU216HW,2013-02-08 01:46:00,
2013-02-07 19:51:00,23.0,20.4,29.82,ENE,68,3.3,13.6,90,0.00,,,0.00,WUHU216HW,2013-02-08 01:51:00,
2013-02-07 19:56:00,22.8,20.3,29.82,East,90,5.3,8.0,90,0.00,,,0.00,WUHU216HW,2013-02-08 01:56:00,
2013-02-07 20:01:00,22.6,20.1,29.83,NE,54,6.6,11.1,90,0.00,,,0.00,WUHU216HW,2013-02-08 02:01:00,
2013-02-07 20:06:00,22.4,19.9,29.83,East,90,6.9,11.1,90,0.00,,,0.00,WUHU216HW,2013-02-08 02:06:00,
2013-02-07 20:11:00,22.2,19.7,29.83,NE,45,5.3,6.9,90,0.00,,,0.00,WUHU216HW,2013-02-08 02:11:00,
2013-02-07 20:16:00,22.2,19.7,29.83,NE,45,0.0,5.3,90,0.00,,,0.00,WUHU216HW,2013-02-08 02:16:00,
2013-02-07 20:21:00,22.2,19.7,29.84,NNE,23,8.3,9.3,90,0.00,,,0.00,WUHU216HW,2013-02-08 02:21:00,
2013-02-07 20:26:00,22.2,19.7,29.83,NNE,15,3.1,9.3,90,0.00,,,0.00,WUHU216HW,2013-02-08 02:26:00,
2013-02-07 20:31:00,21.9,19.4,29.83,North,9,8.2,10.0,90,0.00,,,0.00,WUHU216HW,2013-02-08 02:31:00,
2013-02-07 20:36:00,21.9,19.4,29.84,NE,45,8.6,10.7,90,0.00,,,0.00,WUHU216HW,2013-02-08 02:36:00,
2013-02-07 20:41:00,21.7,19.2,29.84,NNE,23,5.5,10.7,90,0.00,,,0.00,WUHU216HW,2013-02-08 02:41:00,
2013-02-07 20:46:00,21.5,19.0,29.85,NNW,341,6.2,10.2,90,0.00,,,0.00,WUHU216HW,2013-02-08 02:46:00,
2013-02-07 20:52:00,21.3,18.8,29.84,NNE,23,2.6,10.2,90,0.00,,,0.00,WUHU216HW,2013-02-08 02:52:00,
2013-02-07 20:57:00,21.5,19.0,29.85,East,90,8.7,8.7,90,0.00,,,0.00,WUHU216HW,2013-02-08 02:57:00,
2013-02-07 21:02:00,21.3,18.8,29.85,NNE,15,5.1,8.7,90,0.00,,,0.00,WUHU216HW,2013-02-08 03:02:00,
2013-02-07 21:07:00,21.3,18.8,29.86,ENE,68,2.2,6.7,90,0.00,,,0.00,WUHU216HW,2013-02-08 03:07:00,
2013-02-07 21:12:00,21.3,18.8,29.86,NE,45,4.9,6.2,90,0.00,,,0.00,WUHU216HW,2013-02-08 03:12:00,
2013-02-07 21:17:00,21.0,18.5,29.86,NNE,23,6.4,6.4,90,0.00,,,0.00,WUHU216HW,2013-02-08 03:17:00,
2013-02-07 21:22:00,21.0,18.5,29.86,NNE,23,7.1,9.8,90,0.00,,,0.00,WUHU216HW,2013-02-08 03:22:00,
2013-02-07 21:27:00,21.0,18.5,29.86,North,0,9.3,9.8,90,0.00,,,0.00,WUHU216HW,2013-02-08 03:27:00,
2013-02-07 21:32:00,21.0,18.5,29.87,NNE,23,7.4,9.3,90,0.00,,,0.00,WUHU216HW,2013-02-08 03:32:00,
2013-02-07 21:37:00,21.0,18.5,29.87,NNE,23,5.1,8.2,90,0.00,,,0.00,WUHU216HW,2013-02-08 03:37:00,
2013-02-07 21:43:00,21.0,18.5,29.87,NNE,12,6.9,9.1,90,0.00,,,0.00,WUHU216HW,2013-02-08 03:43:00,
2013-02-07 21:48:00,21.0,18.5,29.87,ENE,66,3.8,9.1,90,0.00,,,0.00,WUHU216HW,2013-02-08 03:48:00,
2013-02-07 21:53:00,21.0,18.5,29.87,NNE,23,8.6,10.5,90,0.00,,,0.00,WUHU216HW,2013-02-08 03:53:00,
2013-02-07 21:58:00,21.0,18.5,29.87,NE,45,2.4,10.5,90,0.00,,,0.00,WUHU216HW,2013-02-08 03:58:00,
2013-02-07 22:03:00,21.0,18.5,29.87,NE,46,8.5,10.9,90,0.00,,,0.00,WUHU216HW,2013-02-08 04:03:00,
2013-02-07 22:08:00,21.0,18.5,29.87,NNE,23,4.2,11.4,90,0.00,,,0.00,WUHU216HW,2013-02-08 04:08:00,
2013-02-07 22:13:00,21.0,18.5,29.87,NNE,23,10.2,11.4,90,0.00,,,0.00,WUHU216HW,2013-02-08 04:13:00,
2013-02-07 22:18:00,21.0,18.5,29.87,NNE,23,2.2,10.2,90,0.00,,,0.00,WUHU216HW,2013-02-08 04:18:00,
2013-02-07 22:23:00,21.0,18.5,29.88,North,0,7.8,7.8,90,0.00,,,0.00,WUHU216HW,2013-02-08 04:23:00,
2013-02-07 22:28:00,21.0,18.5,29.87,North,9,9.3,10.9,90,0.00,,,0.00,WUHU216HW,2013-02-08 04:28:00,
2013-02-07 22:33:00,21.0,18.5,29.88,NE,51,5.4,10.9,90,0.00,,,0.00,WUHU216HW,2013-02-08 04:33:00,
2013-02-07 22:38:00,21.0,18.5,29.88,NNE,14,5.6,7.8,90,0.00,,,0.00,WUHU216HW,2013-02-08 04:38:00,
2013-02-07 22:43:00,21.0,18.5,29.88,North,0,7.8,9.8,90,0.00,,,0.00,WUHU216HW,2013-02-08 04:43:00,
2013-02-07 22:48:00,21.0,18.5,29.88,NNE,23,1.7,9.8,90,0.00,,,0.00,WUHU216HW,2013-02-08 04:48:00,
2013-02-07 22:53:00,21.0,18.5,29.88,North,0,4.4,6.7,90,0.00,,,0.00,WUHU216HW,2013-02-08 04:53:00,
2013-02-07 22:58:00,21.0,18.6,29.88,ESE,113,6.4,8.2,90,0.00,,,0.00,WUHU216HW,2013-02-08 04:58:00,
2013-02-07 23:00:00,21.2,18.5,29.88,NE,45,0.0,8.2,90,0.00,,,0.00,WUHU216HW,2013-02-08 05:00:00,
2013-02-07 23:01:00,21.2,18.6,29.88,ENE,68,0.0,8.2,90,0.00,,,0.00,WUHU216HW,2013-02-08 05:01:00,
2013-02-07 23:06:00,21.0,18.5,29.88,East,90,2.0,9.3,90,0.00,,,0.00,WUHU216HW,2013-02-08 05:06:00,
2013-02-07 23:11:00,21.0,18.5,29.88,ENE,63,1.9,9.3,90,0.00,,,0.00,WUHU216HW,2013-02-08 05:11:00,
2013-02-07 23:16:00,21.0,18.5,29.89,ENE,68,2.2,7.6,90,0.00,,,0.00,WUHU216HW,2013-02-08 05:16:00,
2013-02-07 23:21:00,21.0,18.5,29.89,NNE,23,8.5,8.5,90,0.00,,,0.00,WUHU216HW,2013-02-08 05:21:00,
2013-02-07 23:26:00,21.0,18.5,29.89,NNE,23,3.3,8.5,90,0.00,,,0.00,WUHU216HW,2013-02-08 05:26:00,
2013-02-07 23:31:00,21.0,18.5,29.88,NE,52,1.9,9.3,90,0.00,,,0.00,WUHU216HW,2013-02-08 05:31:00,
2013-02-07 23:36:00,21.0,18.5,29.89,NNE,23,2.9,9.3,90,0.00,,,0.00,WUHU216HW,2013-02-08 05:36:00,
2013-02-07 23:41:00,21.0,18.5,29.89,ESE,113,3.8,10.0,90,0.00,,,0.00,WUHU216HW,2013-02-08 05:41:00,
2013-02-07 23:46:00,20.8,18.3,29.89,NE,45,7.1,10.0,90,0.00,,,0.00,WUHU216HW,2013-02-08 05:46:00,
2013-02-07 23:51:00,20.8,18.3,29.90,ENE,68,4.4,8.9,90,0.00,,,0.00,WUHU216HW,2013-02-08 05:51:00,
2013-02-07 23:56:00,20.8,18.3,29.90,NE,45,4.6,6.0,90,0.00,,,0.00,WUHU216HW,2013-02-08 05:56:00,